Temp
9 9 9 9 9 9 9 9 8 8 8 8 8 8 8 8 8 8 8 9 9 9 9 10 10 11 10 11 12 16 16 15 15 15 15 15 14 15 15 15 16 16 17 18 19 18 19
9 9 9 9 9 9 8 9 8 8 7 7 8 8 7 8 8 8 8 8 8 8 9 9 10 10 10 10 14 15 16 15 15 15 15 15 15 15 16 16 16 17 17 18 18 18 18
8 9 9 9 9 9 9 8 8 8 7 8 8 7 7 7 7 7 7 7 8 8 8 9 9 10 10 12 15 15 16 15 15 15 15 15 16 16 16 17 17 18 17 17 17 18 18
8 9 8 8 8 8 7 7 7 7 8 7 7 7 7 7 7 7 7 7 7 8 8 8 9 10 11 13 15 14 15 15 16 15 16 16 16 16 16 17 17 17 16 16 17 18 18
8 8 8 8 8 8 7 7 7 7 7 7 7 6 7 7 6 6 6 7 7 8 8 9 9 10 11 14 13 15 15 16 15 15 15 15 15 14 16 14 14 15 14 14 15 17 17
8 8 8 8 8 7 7 7 7 7 7 7 7 7 7 7 6 6 7 6 9 8 8 8 9 9 11 12 14 15 15 15 14 14 14 14 13 13 14 14 14 14 14 15 15 17 17
8 8 8 8 7 7 7 7 7 7 7 7 7 7 7 7 7 6 6 6 6 7 9 9 9 11 13 14 14 14 15 15 14 14 13 14 14 14 14 15 15 16 16 15 15 17 16
7 7 8 7 7 7 7 7 7 7 7 7 7 6 6 6 7 6 6 5 7 7 8 9 9 10 13 14 13 14 15 14 13 13 13 13 13 14 14 14 14 15 15 14 14 16 16
7 7 7 7 7 6 7 6 6 7 6 6 7 7 6 6 6 6 5 6 7 8 7 9 9 10 14 14 13 13 15 15 14 13 13 13 15 15 15 15 14 14 14 14 14 14 14
7 7 7 7 7 6 6 6 6 7 6 6 6 6 6 6 7 6 6 7 6 8 7 9 9 11 13 14 13 14 15 15 14 14 14 14 15 15 14 14 14 14 14 14 14 13 11
7 7 7 6 6 6 6 6 7 7 7 6 6 6 6 6 6 6 7 7 7 7 9 9 10 12 13 13 12 13 15 16 14 14 14 13 14 14 14 14 15 14 14 14 13 11 10
6 6 6 6 6 6 6 6 7 7 6 6 6 6 6 6 6 7 7 7 7 6 8 9 10 11 12 12 13 13 14 15 15 15 14 14 14 14 14 14 14 14 13 11 10 9 7
6 6 6 6 6 6 6 6 6 6 6 6 6 6 6 6 7 7 6 7 6 7 7 9 11 12 12 12 12 13 13 12 12 11 10 13 13 14 14 13 14 12 9 6 8 7 9
6 6 6 6 6 6 6 6 6 6 6 6 7 8 7 7 7 7 7 6 7 8 8 10 12 12 11 12 12 13 12 11 12 11 9 10 10 13 13 13 12 12 10 7 10 10 10
6 6 6 6 6 6 6 6 6 6 6 7 8 8 7 6 7 7 7 7 8 8 8 11 12 11 11 11 12 12 12 11 12 12 10 9 11 13 13 14 13 12 8 10 9 7 5
6 6 6 6 6 6 6 6 6 5 6 7 7 7 6 7 7 7 6 9 8 8 11 12 10 11 10 11 11 12 12 12 12 12 12 12 10 13 14 14 14 12 11 8 4 5 9
6 6 6 6 6 5 5 5 5 6 7 8 7 6 7 7 8 6 7 8 8 11 12 13 11 12 11 11 11 11 11 12 13 13 13 14 10 11 13 12 11 11 11 11 9 8 7
6 6 6 6 5 5 5 5 5 5 6 8 5 7 7 7 6 6 7 6 9 10 12 12 13 13 12 11 12 12 11 13 13 13 12 13 10 9 11 12 12 11 11 10 6 8 7
5 6 5 5 5 5 5 5 5 5 6 6 5 6 7 7 7 7 6 8 10 11 11 14 13 14 13 12 12 12 12 13 14 14 13 13 10 7 11 10 11 10 11 11 9 9 5
5 5 5 5 5 5 5 4 4 5 6 7 6 4 5 7 7 8 9 9 11 13 13 13 13 13 13 13 12 11 11 12 13 13 14 13 9 9 9 9 9 7 10 10 9 7 8
5 5 5 5 5 5 4 4 4 5 7 8 5 6 7 8 9 9 10 10 12 12 13 13 14 14 14 13 12 11 11 11 12 13 12 11 9 10 10 10 11 10 10 10 7 11 9
5 5 5 5 4 4 4 4 4 4 7 7 6 6 8 8 10 10 10 11 11 12 12 13 12 13 13 12 12 12 11 11 11 11 11 10 6 8 5 10 9 8 10 10 10 11 11
4 5 5 4 4 4 4 4 4 4 5 5 6 6 7 8 8 10 10 12 12 13 13 12 12 11 11 11 11 10 12 11 11 10 10 11 9 5 7 10 10 9 10 11 11 10 12
4 4 4 4 4 4 3 3 4 4 4 4 5 5 7 7 8 10 11 12 12 12 12 11 11 11 12 12 12 11 10 10 11 12 11 10 9 5 6 9 9 13 15 14 12 12 12
4 4 4 4 4 4 3 3 3 4 4 4 4 5 6 8 7 10 12 12 12 11 11 10 10 9 10 11 10 11 11 12 11 11 11 10 10 7 9 9 11 15 15 16 14 13 13
4 4 4 4 4 4 3 3 3 4 4 4 4 5 5 7 7 9 11 12 10 10 11 11 10 10 10 10 11 11 10 11 10 11 11 11 11 9 10 9 12 15 15 14 13 12 13
4 4 4 4 4 4 4 4 4 4 4 3 4 4 4 6 7 9 11 12 12 11 11 11 11 11 11 9 11 11 11 12 11 11 10 10 10 10 10 11 11 12 13 13 14 13 12
3 4 4 4 4 4 4 4 4 4 4 3 3 3 4 5 6 8 10 11 12 11 11 10 10 10 10 10 10 10 10 11 12 12 12 11 10 11 11 11 10 14 13 14 13 12 12
3 3 4 4 4 3 4 4 4 4 4 3 3 3 3 3 5 6 8 9 10 11 10 9 10 9 10 10 9 8 9 9 11 12 11 10 10 10 11 11 12 13 14 12 10 10 10
Height
838 833 830 827 824 819 815 811 806 802 798 794 790 788 786 782 779 776 774 772 769 767 765 762 761 762 767 771 758 750 748 751 758 763 766 771 777 777 782 782 783 785 782 777 776 778 778
836 832 828 824 821 817 813 809 804 800 796 792 787 784 781 777 775 772 769 766 764 762 760 758 757 756 761 767 751 750 750 752 756 760 765 768 770 772 775 776 782 777 778 778 775 777 778
835 831 827 822 819 815 811 806 801 796 791 787 783 779 776 773 770 767 764 762 759 757 755 754 753 752 754 753 749 749 750 751 754 758 762 765 767 771 770 774 772 773 781 780 777 775 777
834 829 825 821 816 811 806 802 797 793 788 784 779 776 772 769 766 763 760 758 755 752 751 749 749 751 747 745 747 749 750 752 755 757 760 763 767 769 769 771 773 778 784 790 776 772 773
832 829 825 819 814 808 803 798 793 789 784 780 776 772 769 766 763 760 756 753 749 747 747 746 744 744 745 741 745 746 749 752 754 756 761 763 767 772 771 779 785 783 794 792 785 771 772
830 827 822 817 812 806 801 795 790 786 781 777 773 769 766 763 759 756 751 747 741 742 742 743 740 749 743 739 739 745 749 751 753 757 763 766 767 772 775 778 788 789 789 788 787 772 770
830 824 819 815 809 804 799 793 788 784 779 774 770 766 763 759 757 753 750 745 743 744 739 739 742 736 731 734 740 743 747 751 752 757 763 765 770 771 771 772 776 777 780 784 780 772 775
827 822 817 813 807 802 797 792 786 781 777 773 767 763 760 756 753 751 749 747 746 747 743 739 741 740 732 732 740 743 746 750 754 762 764 770 771 768 771 774 779 781 782 787 780 774 774
826 821 816 810 805 800 794 789 783 778 773 769 765 760 756 753 750 748 747 746 745 745 745 739 742 737 732 732 737 742 745 746 753 760 765 770 765 764 770 774 778 782 784 785 787 781 777
824 819 814 808 802 797 792 787 782 777 771 766 762 757 754 751 748 746 743 742 744 746 746 737 738 732 733 731 741 741 743 745 752 759 763 767 762 764 771 773 775 781 780 781 785 789 798
822 818 813 807 800 795 790 785 780 773 768 763 758 753 750 748 746 745 744 741 744 747 737 732 732 731 731 735 738 744 744 744 754 754 763 770 767 768 772 772 772 781 780 784 789 799 802
822 816 811 805 799 793 788 783 777 772 765 758 752 747 742 738 738 740 743 744 746 754 739 730 726 730 735 738 739 743 746 747 749 755 761 766 763 768 770 771 771 777 786 795 799 811 831
818 815 810 804 798 792 786 781 775 768 761 753 744 738 737 736 738 738 741 746 753 747 743 730 724 728 734 739 744 746 751 755 761 773 780 772 773 769 769 779 777 783 805 840 832 838 811
819 813 807 803 797 791 784 779 773 765 759 748 740 738 737 737 737 740 745 749 747 737 734 726 722 729 737 742 746 750 754 761 760 767 787 788 796 774 771 776 783 786 800 827 809 807 805
817 813 807 802 796 790 784 778 771 764 755 747 744 742 742 742 742 743 747 746 739 738 732 718 728 735 744 747 747 750 756 762 761 762 777 794 782 770 772 772 778 788 812 797 813 827 842
816 812 806 802 796 789 783 778 770 762 753 748 747 747 749 749 749 751 753 736 737 734 725 725 739 740 746 750 753 752 757 760 759 760 762 769 789 770 772 772 774 781 787 817 842 847 815
813 811 805 801 796 789 783 778 770 761 753 748 747 752 754 752 752 754 755 744 743 729 729 727 737 736 743 748 751 756 760 757 756 759 761 760 782 782 774 780 786 787 791 791 806 814 824
813 809 805 801 796 789 783 779 772 762 756 753 753 755 755 753 757 756 751 754 741 737 728 728 730 733 741 747 750 751 760 753 753 756 765 762 779 794 784 776 777 779 784 790 821 810 820
812 809 805 800 796 789 783 779 773 765 760 756 758 758 755 756 758 753 754 746 740 734 733 723 729 729 736 745 752 751 752 752 750 754 761 763 781 806 781 786 781 786 782 783 793 798 828
811 808 804 800 796 790 784 778 772 765 760 760 760 769 760 755 757 755 746 744 735 726 725 724 728 730 736 741 744 756 756 755 753 754 755 761 782 787 793 786 786 797 779 781 794 810 799
809 807 803 800 796 791 785 779 773 766 761 759 762 763 761 755 751 749 744 744 734 733 729 729 734 734 737 744 749 754 758 760 758 757 761 767 782 779 779 776 773 776 777 780 796 772 785
808 806 802 799 795 792 787 781 776 768 761 763 764 764 759 756 749 750 749 742 741 739 736 739 742 741 740 746 746 750 756 762 762 764 767 771 797 790 801 774 776 783 774 774 772 766 763
806 804 802 798 795 791 788 784 780 774 768 766 769 766 764 757 755 752 749 742 741 739 740 741 743 745 750 752 750 750 748 754 758 765 768 767 780 805 796 771 771 778 759 756 757 757 748
804 802 800 798 795 791 788 785 783 779 775 772 770 769 766 763 757 750 745 743 743 742 746 748 747 748 753 750 751 752 757 760 760 759 762 771 781 805 802 780 781 742 731 735 743 738 740
802 800 798 797 795 790 788 785 783 781 779 776 773 772 769 762 761 752 746 745 745 747 748 753 754 755 753 753 758 758 761 760 762 762 764 768 777 795 781 784 758 732 729 730 737 736 730
800 797 796 794 793 790 787 785 783 781 778 775 773 771 771 767 761 755 748 745 753 753 750 753 755 754 754 757 755 756 763 762 769 765 766 767 770 779 775 784 756 732 726 728 732 742 729
797 795 793 792 791 788 786 784 782 780 778 776 773 772 771 767 757 754 748 746 744 749 752 753 755 756 756 762 758 754 758 749 760 756 764 768 770 771 773 769 753 736 731 731 735 737 727
793 792 790 789 788 786 784 782 780 779 777 776 773 771 771 768 759 753 748 745 743 745 749 757 758 758 760 760 759 759 763 750 749 749 752 760 767 764 766 764 768 726 729 732 728 726 726
790 789 787 786 784 783 781 780 778 776 775 774 773 771 770 770 760 753 748 746 746 746 749 754 755 757 755 756 761 765 762 760 753 743 752 759 754 754 751 746 730 725 725 727 730 730 727
Wind_Speed
21 18 21 21 22 25 25 27 27 27 27 25 24 22 21 22 22 22 22 23 21 21 19 23 21 15 8 5 9 10 4 22 23 20 17 9 6 5 6 7 4 3 3 4 6 7 4
21 22 22 22 24 25 25 31 29 29 28 22 22 23 21 20 22 21 21 21 20 20 19 21 21 19 6 9 12 17 6 21 19 19 13 10 6 7 5 4 8 4 8 6 4 4 3
21 22 21 23 26 28 28 27 28 26 26 25 25 24 22 21 20 21 19 19 20 20 20 20 19 21 9 14 7 11 12 22 22 22 5 15 13 4 4 3 5 2 5 2 4 3 4
22 22 22 25 27 26 27 25 25 26 26 25 24 21 20 20 21 18 17 19 19 19 20 20 19 16 5 15 9 8 11 11 12 19 21 16 11 1 3 1 3 5 4 1 4 3 6
22 24 25 23 27 28 29 27 26 26 26 25 22 20 19 19 18 16 20 21 23 22 19 18 13 10 4 8 11 18 14 7 13 10 12 9 5 1 2 6 3 1 3 5 6 7 6
22 25 26 26 27 29 27 26 25 25 25 23 21 20 20 20 17 16 22 23 22 16 8 1 7 4 4 5 10 20 16 11 4 13 6 3 3 3 2 4 7 6 4 3 5 4 2
24 24 25 26 27 27 27 26 26 25 24 23 21 22 20 21 18 15 21 11 5 3 3 4 6 5 3 6 18 13 16 7 5 3 4 4 3 6 5 5 3 3 2 2 4 4 5
24 24 26 25 26 26 26 26 25 25 24 22 22 21 21 19 17 17 12 2 2 1 3 10 8 15 15 12 9 9 14 6 6 5 6 3 2 5 10 6 6 1 3 4 6 1 3
23 24 24 25 25 26 26 27 25 25 24 23 23 21 19 17 18 11 10 8 4 2 2 2 9 11 6 5 4 12 10 5 8 7 4 5 1 7 5 6 6 4 3 2 4 5 1
23 25 24 26 25 25 25 27 26 27 26 26 25 21 19 19 10 8 10 6 15 4 2 3 7 5 5 6 4 5 9 5 3 9 7 3 2 4 4 2 4 2 1 3 3 4 4
23 24 24 27 26 25 25 27 28 28 27 26 25 22 21 18 11 3 5 1 14 3 4 9 6 17 3 1 12 6 4 3 5 8 5 4 5 3 3 3 4 3 4 4 2 3 4
23 23 25 28 26 25 25 27 28 28 28 29 31 28 25 19 9 11 7 15 5 2 3 5 6 10 8 5 2 7 3 4 3 5 5 2 2 3 4 4 4 7 5 6 4 3 2
21 22 25 27 27 26 26 28 29 29 30 33 35 25 15 4 1 3 10 3 3 1 2 3 8 14 12 5 5 7 6 3 4 5 3 2 2 1 3 6 3 5 6 2 4 2 6
22 21 25 27 27 27 28 29 29 30 32 36 21 13 11 4 1 14 9 1 3 4 2 5 12 14 6 7 11 7 6 4 3 5 4 4 2 5 2 4 5 4 6 4 4 3 4
20 22 24 25 26 27 28 30 30 31 31 26 15 13 16 15 10 15 2 2 1 4 4 9 15 8 4 4 6 5 2 5 3 3 5 4 1 3 4 3 6 3 2 4 3 4 3
19 21 23 25 25 27 28 30 31 32 36 15 7 4 9 11 7 8 2 5 3 4 7 7 5 1 4 4 5 3 7 4 3 6 2 5 4 2 2 4 1 4 6 3 3 1 4
17 22 24 25 24 26 28 29 32 33 25 7 5 3 6 4 2 2 2 3 3 6 6 2 3 4 6 5 6 3 9 1 7 4 4 1 4 1 4 4 6 3 2 1 3 4 3
18 20 23 24 25 25 27 29 31 32 25 11 3 3 3 6 2 1 2 6 8 6 6 4 4 7 4 4 4 3 7 3 8 6 6 1 4 3 6 2 4 4 6 6 3 3 2
16 20 22 23 24 24 27 29 30 29 20 6 2 1 1 1 2 2 3 3 3 7 8 3 3 3 5 5 5 5 4 5 8 8 7 4 1 2 2 5 3 3 5 4 4 2 6
15 18 20 21 23 23 25 28 30 30 17 2 1 2 3 1 2 1 4 3 2 3 4 5 5 12 5 3 3 4 3 4 3 3 9 6 3 4 5 4 3 3 5 7 6 3 3
13 15 18 20 21 22 23 27 30 30 14 2 2 1 2 2 3 2 3 6 6 6 6 8 7 4 5 3 4 4 3 3 5 4 3 4 4 1 4 6 3 4 5 7 9 18 6
12 13 16 18 19 20 22 25 27 31 11 6 2 2 3 2 1 4 3 4 6 4 4 3 5 4 7 3 2 5 6 3 3 1 3 1 2 2 5 5 7 6 9 10 13 15 14
10 13 14 16 18 19 19 21 23 26 18 6 5 4 1 4 2 0 2 2 5 3 8 7 6 6 9 3 4 3 5 6 6 6 3 4 3 2 4 3 3 5 11 15 6 6 8
9 12 12 14 16 17 18 19 19 20 21 6 4 3 2 3 1 1 3 2 4 3 5 3 7 4 0 2 3 5 8 7 5 3 4 4 4 2 3 3 1 6 2 6 11 9 9
8 11 10 12 14 15 16 16 17 16 16 14 3 2 2 3 2 4 3 3 3 5 4 4 5 1 3 4 3 3 2 2 3 2 4 5 4 1 1 2 6 2 1 1 5 6 3
10 10 9 11 11 13 15 15 15 15 15 15 2 6 1 2 3 3 2 3 3 2 2 3 1 3 4 2 1 3 4 4 3 2 3 3 3 2 2 0 3 3 1 2 3 4 4
11 11 10 11 11 12 13 15 14 14 14 14 4 4 1 2 3 3 3 3 4 2 3 3 1 1 1 2 1 3 2 4 5 7 5 4 2 5 3 3 6 7 4 3 1 4 2
10 12 10 10 13 12 13 13 14 13 12 12 10 1 2 2 5 3 4 1 1 2 3 3 2 0 1 1 2 1 2 3 3 5 6 7 6 3 3 3 7 3 3 2 3 2 2
10 12 11 11 12 11 13 13 13 12 11 8 4 7 6 3 4 8 13 11 3 2 4 2 1 2 3 1 1 1 2 2 2 3 2 4 6 4 6 5 5 3 3 0 1 3 3
Wind_Direction
333 334 345 335 329 331 328 330 328 325 321 319 318 315 315 314 310 308 306 302 293 301 292 283 299 192 173 212 242 280 277 184 188 192 180 182 174 172 181 177 233 219 262 226 247 269 244
339 340 335 335 330 329 333 330 326 329 328 330 324 313 311 305 308 305 305 301 291 295 287 285 287 179 149 228 260 247 181 172 190 185 189 181 193 208 206 187 173 204 210 251 263 238 242
338 335 332 337 341 332 329 332 331 332 328 319 319 319 315 313 310 309 308 306 299 292 286 285 290 182 162 216 278 204 179 185 187 189 174 202 217 189 165 132 193 177 167 291 238 230 253
337 333 338 340 336 330 330 328 330 327 326 325 323 322 315 316 317 314 314 311 305 290 286 284 274 203 210 228 222 220 182 190 210 207 213 215 207 224 168 209 115 130 70 216 262 254 245
331 340 332 331 333 331 332 330 328 328 328 326 326 326 321 320 318 324 322 313 297 288 286 293 294 168 211 193 212 221 200 188 148 167 180 144 138 133 109 137 77 37 166 205 303 219 225
342 334 340 340 334 335 338 336 335 331 331 331 330 327 322 321 319 325 331 321 301 287 267 16 125 90 265 198 166 196 208 195 133 124 120 121 144 116 120 144 197 192 185 211 230 285 257
337 340 339 336 338 341 339 338 335 332 331 333 333 328 325 322 323 322 327 335 5 29 211 171 189 240 165 167 159 184 189 155 118 121 133 157 160 169 145 201 136 157 138 233 260 294 321
339 337 338 339 341 338 340 337 333 335 334 331 329 328 325 323 321 316 347 298 269 144 306 226 270 262 295 149 158 181 178 160 139 134 121 109 211 194 172 189 213 246 282 288 285 245 307
339 339 338 339 339 339 338 337 338 333 333 332 330 327 326 326 319 304 323 256 170 359 303 317 223 242 185 119 122 166 166 150 147 132 147 141 144 158 157 171 190 159 164 219 259 322 7
338 340 337 339 339 338 336 340 338 335 337 337 331 328 323 326 321 315 303 301 200 225 128 191 190 204 260 135 72 110 188 142 147 152 135 162 252 141 150 139 121 116 124 165 46 32 269
342 340 338 340 339 339 339 340 337 338 337 332 327 318 309 302 280 270 323 152 172 163 132 149 171 153 153 121 140 203 47 25 143 131 112 223 160 129 106 179 134 164 98 91 79 67 1
344 343 339 341 340 342 340 338 340 339 332 330 327 316 315 308 249 241 269 160 169 55 190 185 126 157 130 125 97 128 99 37 89 114 78 93 69 101 160 60 128 125 72 38 57 71 343
346 343 342 343 347 347 344 344 343 338 336 333 328 318 321 317 346 110 179 152 60 347 313 138 138 143 123 122 119 136 145 115 133 122 117 46 30 79 95 91 47 91 68 358 354 358 230
344 344 346 347 348 349 346 348 343 342 340 344 355 21 33 32 145 144 147 39 89 235 259 162 136 119 89 124 137 134 132 118 46 82 107 136 299 175 184 158 173 157 143 156 215 226 285
347 343 350 347 350 348 350 348 345 344 343 352 27 37 45 36 123 141 29 12 299 243 175 127 114 106 112 71 117 131 137 157 169 156 127 123 266 113 156 131 133 196 115 192 82 26 36
349 344 348 351 349 349 350 349 348 345 342 352 29 48 29 40 115 54 356 336 5 293 100 117 81 103 106 117 116 130 153 198 199 182 176 192 97 154 156 95 98 131 153 64 357 102 269
351 344 352 352 348 351 352 352 353 351 4 36 44 63 356 45 17 79 292 332 310 118 118 42 116 100 94 123 122 108 179 197 178 185 172 118 95 320 124 203 182 142 186 179 121 160 192
352 350 352 353 352 354 354 356 358 1 4 34 59 63 263 312 41 8 294 315 327 188 262 287 87 105 112 112 132 135 180 258 188 155 160 69 110 167 208 266 189 161 193 167 134 244 231
355 352 353 356 354 356 355 358 360 3 4 347 41 336 260 329 35 323 266 296 269 211 240 116 114 134 137 125 141 119 115 342 183 160 153 162 99 99 68 7 15 185 198 189 128 116 206
355 354 353 357 358 358 357 358 360 1 4 50 42 20 325 335 129 8 330 342 303 299 31 76 97 128 100 96 59 121 103 30 60 116 146 96 145 167 182 199 146 195 190 195 159 176 196
355 355 351 355 357 1 0 358 1 360 10 99 21 17 298 351 27 307 360 325 32 24 16 42 94 127 126 120 109 104 107 85 25 49 70 111 185 217 249 251 206 225 221 199 195 230 236
349 354 351 353 356 0 360 358 4 2 24 61 29 357 332 295 334 353 339 342 29 3 28 82 96 75 89 76 258 155 123 128 183 38 105 40 170 38 294 267 221 241 236 226 232 247 255
339 350 351 350 352 355 357 -0 4 9 21 40 351 324 304 304 302 37 275 315 360 36 21 43 127 87 64 30 41 59 112 139 159 144 133 135 142 90 273 339 300 283 225 210 203 220 222
329 344 348 346 347 355 357 1 4 10 14 11 358 326 333 293 305 281 357 78 50 19 118 15 41 80 270 104 124 54 57 76 105 143 127 125 120 137 257 357 302 249 254 185 201 239 220
318 340 340 339 341 348 351 355 356 1 10 8 332 341 316 269 275 319 17 119 68 45 65 65 23 329 321 48 80 103 36 74 192 191 160 135 142 207 289 269 279 222 255 138 203 281 185
310 327 328 329 332 339 341 348 350 350 355 1 56 9 330 296 251 269 276 165 150 121 56 83 324 336 48 78 75 186 202 189 158 144 69 128 162 131 349 210 254 255 189 358 112 288 200
310 312 319 320 322 331 331 334 336 342 344 348 295 358 254 273 274 322 215 199 153 123 123 109 96 30 31 105 151 211 256 168 162 172 172 175 192 229 221 276 286 251 268 145 28 254 235
307 307 313 314 313 317 323 325 325 327 334 341 315 19 40 298 281 272 309 23 28 112 147 160 97 300 71 191 187 204 221 254 136 163 164 180 176 197 186 222 267 226 90 223 239 257 253
304 302 312 307 306 311 313 313 311 310 317 317 296 330 329 224 274 295 279 280 275 332 128 143 152 181 198 151 163 98 290 321 185 209 148 204 191 180 197 212 247 263 233 36 270 244 251